Location: Dzierzno
(50.6159°N, 19.2852°E)
Time: 21:18:39
(UTC+00:00)

SAR-Lupe-1 - Pass Details

Date: 18 November 2025
Orbit: 477 x 487 km, 98.1° (Epoch: 19 February)

Event Time Altitude Azimuth Distance (km) Brightness Sun altitude
Rises 16:04:44 0° 163° (SSE) 2,527 7.7 -11.3°
Reaches altitude 10° 16:06:46 10° 163° (SSE) 1,655 6.8 -11.6°
Maximum altitude 16:10:20 87° 73° (ENE) 490 4.0 -12.1°
Drops below altitude 10° 16:13:56 10° 346° (NNW) 1,675 6.8 -12.7°
Sets 16:16:01 0° 346° (NNW) 2,562 7.7 -13.0°
